TABOR31 KLSV-EGUL

Flight info

Callsign TABOR31
Flight time N/A
Altitude 41000
Route MMM8 MMM DCT NORRA J107 DDY J158 ABR J32 DLH Q924 MECNU DCT 51N087W 53N079W 55N071W 57N067W DCT YDP/M080F410 N931B URTAK DCT 60N050W 61N040W 60N030W 58N020W DCT SUNOT/N0454F410 DCT PEVAN DCT TADEX DCT SOSIM L15 HON P155 SIVDA
Aircraft F35/M-SDE3RV/LB1

Departure

Time 2026-04-25 13:26
Airport Nellis Air Force Base (KLSV)

Arrival

Time N/A
Airport RAF Lakenheath (EGUL)
Time Latitude Longitude Altitude Speed Heading
2026-04-25 13:13 36.23403 -115.04276 1867 ft 0 kts 221°
2026-04-25 13:20 36.23402 -115.04277 1867 ft 2 kts 221°
2026-04-25 13:20 36.23376 -115.04276 1886 ft 10 kts 131°
2026-04-25 13:20 36.23339 -115.04199 1884 ft 8 kts 63°
2026-04-25 13:21 36.23374 -115.04160 1884 ft 7 kts 42°
2026-04-25 13:21 36.23470 -115.04055 1886 ft 22 kts 41°
2026-04-25 13:21 36.23545 -115.03973 1886 ft 21 kts 41°
2026-04-25 13:21 36.23654 -115.03854 1886 ft 20 kts 44°
2026-04-25 13:22 36.23792 -115.03708 1885 ft 19 kts 41°
2026-04-25 13:22 36.23889 -115.03601 1885 ft 18 kts 42°
2026-04-25 13:22 36.23980 -115.03502 1884 ft 31 kts 41°
2026-04-25 13:23 36.24217 -115.03246 1885 ft 13 kts 40°
2026-04-25 13:23 36.24308 -115.03153 1885 ft 17 kts 30°
2026-04-25 13:23 36.24417 -115.03141 1885 ft 17 kts
2026-04-25 13:23 36.24555 -115.03127 1884 ft 15 kts 38°
2026-04-25 13:24 36.24560 -115.03018 1885 ft 12 kts 90°
2026-04-25 13:24 36.24557 -115.02913 1885 ft 12 kts 92°
2026-04-25 13:24 36.24554 -115.02803 1881 ft 14 kts 92°
2026-04-25 13:24 36.24512 -115.02702 1881 ft 14 kts 157°
2026-04-25 13:25 36.24464 -115.02732 1881 ft 1 kts 223°
2026-04-25 13:25 36.24452 -115.02746 1881 ft 0 kts 221°
2026-04-25 13:25 36.24441 -115.02757 1881 ft 28 kts 220°
2026-04-25 13:25 36.23803 -115.03452 1941 ft 191 kts 220°
2026-04-25 13:26 36.22585 -115.04810 2263 ft 303 kts 221°
2026-04-25 13:26 36.20883 -115.07076 2932 ft 402 kts 239°
2026-04-25 13:26 36.20328 -115.10593 5077 ft 437 kts 275°
2026-04-25 13:26 36.21499 -115.14137 6387 ft 454 kts 308°
2026-04-25 13:27 36.23966 -115.16354 6686 ft 431 kts 339°
2026-04-25 13:27 36.26882 -115.16736 6901 ft 423 kts
2026-04-25 13:27 36.29496 -115.15248 6630 ft 420 kts 41°
2026-04-25 13:27 36.31466 -115.12570 7113 ft 417 kts 54°
2026-04-25 13:28 36.32995 -115.09441 7311 ft 442 kts 60°
2026-04-25 13:28 36.34145 -115.07249 7709 ft 471 kts 55°
2026-04-25 13:28 36.36724 -115.02488 8641 ft 520 kts 58°
2026-04-25 13:28 36.38688 -114.98559 9427 ft 550 kts 60°
2026-04-25 13:29 36.40651 -114.94527 10164 ft 523 kts 59°
2026-04-25 13:29 36.42643 -114.90687 10422 ft 537 kts 57°
2026-04-25 13:29 36.44731 -114.86866 10484 ft 532 kts 56°
2026-04-25 13:30 36.49121 -114.79435 10629 ft 534 kts 53°
2026-04-25 13:30 36.51399 -114.75849 10689 ft 535 kts 52°
2026-04-25 13:30 36.53789 -114.72221 10757 ft 535 kts 53°
2026-04-25 13:31 36.57947 -114.64600 10900 ft 536 kts 57°
2026-04-25 13:31 36.60013 -114.60705 10974 ft 536 kts 58°
2026-04-25 13:31 36.62066 -114.56824 11055 ft 536 kts 58°
2026-04-25 13:31 36.64113 -114.52932 11110 ft 537 kts 58°
2026-04-25 13:32 36.66194 -114.48952 11211 ft 586 kts 58°
2026-04-25 13:32 36.68416 -114.44670 11271 ft 593 kts 58°
2026-04-25 13:32 36.70637 -114.40371 11379 ft 593 kts 58°
2026-04-25 13:32 36.72873 -114.36025 11443 ft 594 kts 58°
2026-04-25 13:33 36.75107 -114.31664 11521 ft 595 kts 58°
2026-04-25 13:33 36.77612 -114.27541 11604 ft 596 kts 45°
2026-04-25 13:33 36.80821 -114.24238 11713 ft 598 kts 36°
2026-04-25 13:33 36.83116 -114.22301 11766 ft 598 kts 33°
2026-04-25 13:34 36.87835 -114.18730 11909 ft 598 kts 30°
2026-04-25 13:34 36.91432 -114.16145 12149 ft 598 kts 30°
2026-04-25 13:34 36.95059 -114.13526 12757 ft 601 kts 30°
2026-04-25 13:34 36.98675 -114.10853 13012 ft 605 kts 30°
2026-04-25 13:35 37.02275 -114.08128 12856 ft 604 kts 31°
2026-04-25 13:35 37.05849 -114.05366 12685 ft 603 kts 31°
2026-04-25 13:35 37.09402 -114.02636 12532 ft 586 kts 31°
2026-04-25 13:35 37.12770 -114.00040 12471 ft 551 kts 31°
2026-04-25 13:36 37.15946 -113.97560 12408 ft 527 kts 32°
2026-04-25 13:36 37.19186 -113.95016 12248 ft 548 kts 32°
2026-04-25 13:36 37.22431 -113.92462 12068 ft 550 kts 32°
2026-04-25 13:36 37.25668 -113.89911 11895 ft 549 kts 32°
2026-04-25 13:37 37.28900 -113.87361 11728 ft 546 kts 32°
2026-04-25 13:37 37.32073 -113.84853 11623 ft 543 kts 32°
2026-04-25 13:37 37.35297 -113.82298 12394 ft 552 kts 32°
2026-04-25 13:37 37.38549 -113.79712 13187 ft 557 kts 32°
2026-04-25 13:38 37.41852 -113.77074 13961 ft 565 kts 32°
2026-04-25 13:38 37.45179 -113.74393 14688 ft 569 kts 32°
2026-04-25 13:38 37.48541 -113.71651 15449 ft 577 kts 32°
2026-04-25 13:38 37.51868 -113.68900 16202 ft 582 kts 32°
2026-04-25 13:39 37.55293 -113.66095 16991 ft 588 kts 29°
2026-04-25 13:39 37.58813 -113.63440 17812 ft 595 kts 30°
2026-04-25 13:39 37.62315 -113.60588 18563 ft 601 kts 30°
2026-04-25 13:39 37.65902 -113.57784 19282 ft 607 kts 29°
2026-04-25 13:40 37.69513 -113.54907 20018 ft 616 kts 30°
2026-04-25 13:40 37.73159 -113.52004 20754 ft 623 kts 29°
2026-04-25 13:40 37.76861 -113.49071 21522 ft 630 kts 29°
2026-04-25 13:40 37.80540 -113.46128 22321 ft 638 kts 28°
2026-04-25 13:41 37.84347 -113.43101 23174 ft 648 kts 28°
2026-04-25 13:41 37.88193 -113.40034 23942 ft 655 kts 28°
2026-04-25 13:41 37.92051 -113.36937 24646 ft 661 kts 28°
2026-04-25 13:41 37.95960 -113.33786 25371 ft 667 kts 28°
2026-04-25 13:42 37.99897 -113.30623 26079 ft 673 kts 28°
2026-04-25 13:42 38.03827 -113.27448 26845 ft 681 kts 28°
2026-04-25 13:42 38.07849 -113.24205 27626 ft 688 kts 28°
2026-04-25 13:42 38.11904 -113.20924 28440 ft 695 kts 28°
2026-04-25 13:43 38.16005 -113.17605 29302 ft 703 kts 27°
2026-04-25 13:43 38.20175 -113.14225 30147 ft 710 kts 27°
2026-04-25 13:43 38.24359 -113.10829 30899 ft 715 kts 27°
2026-04-25 13:43 38.28577 -113.07401 31684 ft 721 kts 27°
2026-04-25 13:44 38.32765 -113.03987 32485 ft 727 kts 28°
2026-04-25 13:44 38.37021 -113.00280 33301 ft 737 kts 31°
2026-04-25 13:44 38.40922 -112.96073 34118 ft 752 kts 39°
2026-04-25 13:44 38.44670 -112.91346 34847 ft 762 kts 41°
2026-04-25 13:45 38.48571 -112.86756 35614 ft 766 kts 36°
2026-04-25 13:45 38.52570 -112.82154 36383 ft 779 kts 39°
2026-04-25 13:45 38.56608 -112.77419 37153 ft 786 kts 37°
2026-04-25 13:45 38.60655 -112.72721 37984 ft 798 kts 39°
2026-04-25 13:46 38.64756 -112.67901 38752 ft 806 kts 38°
2026-04-25 13:46 38.68936 -112.63029 39452 ft 815 kts 39°
2026-04-25 13:46 38.73143 -112.58074 40201 ft 823 kts 39°
2026-04-25 13:46 38.77398 -112.53091 40775 ft 832 kts 39°
2026-04-25 13:47 38.81649 -112.48073 40925 ft 833 kts 39°
2026-04-25 13:47 38.90147 -112.38048 40978 ft 832 kts 39°
2026-04-25 13:48 38.98672 -112.27956 40964 ft 832 kts 39°
2026-04-25 13:48 39.07188 -112.17839 40927 ft 832 kts 39°
2026-04-25 13:49 39.15643 -112.07758 40867 ft 830 kts 39°
2026-04-25 13:49 39.24132 -111.97602 40833 ft 832 kts 40°
2026-04-25 13:50 39.32632 -111.87396 40845 ft 832 kts 40°
2026-04-25 13:50 39.41057 -111.77246 40856 ft 832 kts 40°
2026-04-25 13:51 39.49526 -111.67007 40838 ft 833 kts 40°
2026-04-25 13:51 39.58008 -111.56716 40833 ft 833 kts 40°
2026-04-25 13:52 39.66451 -111.46436 40830 ft 832 kts 40°
2026-04-25 13:52 39.74849 -111.36175 40842 ft 832 kts 40°
2026-04-25 13:53 39.83282 -111.25835 40846 ft 833 kts 40°
2026-04-25 13:53 39.91687 -111.15493 40840 ft 833 kts 40°
2026-04-25 13:54 40.00123 -111.05077 40839 ft 833 kts 40°
2026-04-25 13:54 40.08490 -110.94709 40829 ft 834 kts 40°
2026-04-25 13:55 40.16925 -110.84219 40820 ft 833 kts 40°
2026-04-25 13:55 40.25254 -110.73822 40823 ft 833 kts 40°
2026-04-25 13:56 40.33603 -110.63364 40815 ft 832 kts 40°
2026-04-25 13:56 40.42009 -110.52795 40812 ft 831 kts 40°
2026-04-25 13:57 40.50317 -110.42312 40814 ft 832 kts 41°
2026-04-25 13:57 40.58679 -110.31723 40797 ft 831 kts 41°
2026-04-25 13:58 40.66977 -110.21176 40795 ft 831 kts 41°
2026-04-25 13:58 40.75313 -110.10543 40813 ft 831 kts 41°
2026-04-25 13:59 40.83574 -109.99967 40800 ft 832 kts 41°
2026-04-25 13:59 40.91907 -109.89258 40813 ft 830 kts 41°
2026-04-25 14:00 41.00148 -109.78630 40831 ft 830 kts 41°
2026-04-25 14:00 41.08430 -109.67907 40849 ft 830 kts 41°
2026-04-25 14:01 41.16631 -109.57251 40867 ft 829 kts 41°
2026-04-25 14:01 41.24874 -109.46500 40888 ft 829 kts 42°
2026-04-25 14:02 41.33122 -109.35702 40880 ft 828 kts 42°
2026-04-25 14:02 41.41287 -109.24974 40918 ft 828 kts 42°
2026-04-25 14:03 41.49460 -109.14195 40950 ft 829 kts 42°
2026-04-25 14:03 41.56288 -109.05154 40950 ft 828 kts 43°
2026-04-25 14:04 41.63867 -108.93515 40957 ft 834 kts 53°
2026-04-25 14:04 41.70772 -108.81020 40967 ft 832 kts 49°
2026-04-25 14:05 41.77744 -108.68732 40972 ft 832 kts 50°
2026-04-25 14:05 41.81137 -108.62684 40951 ft 771 kts 51°
2026-04-25 14:05 41.84238 -108.57228 40949 ft 701 kts 50°
2026-04-25 14:05 41.87058 -108.52230 40957 ft 642 kts 50°
2026-04-25 14:06 41.89624 -108.47663 40947 ft 594 kts 50°
2026-04-25 14:06 41.94639 -108.38753 40978 ft 606 kts 50°
2026-04-25 14:07 41.99760 -108.29631 41013 ft 611 kts 50°
2026-04-25 14:07 42.04865 -108.20498 41009 ft 612 kts 50°
2026-04-25 14:08 42.09944 -108.11378 41009 ft 612 kts 50°
2026-04-25 14:08 42.15086 -108.02123 41013 ft 612 kts 51°
2026-04-25 14:09 42.20156 -107.92972 41009 ft 612 kts 51°
2026-04-25 14:09 42.25256 -107.83737 41009 ft 612 kts 51°
2026-04-25 14:10 42.30312 -107.74552 41022 ft 611 kts 51°
2026-04-25 14:10 42.35384 -107.65311 41021 ft 612 kts 51°
2026-04-25 14:11 42.40452 -107.56048 41019 ft 611 kts 51°
2026-04-25 14:11 42.45474 -107.46842 41030 ft 610 kts 51°
2026-04-25 14:11 42.47913 -107.42353 41042 ft 567 kts 51°
2026-04-25 14:12 42.50227 -107.38102 41039 ft 558 kts 51°
2026-04-25 14:12 42.54898 -107.29485 41045 ft 567 kts 51°
2026-04-25 14:13 42.59535 -107.20914 41044 ft 567 kts 51°
2026-04-25 14:13 42.64187 -107.12285 41046 ft 565 kts 51°
2026-04-25 14:14 42.68845 -107.03620 41046 ft 568 kts 51°
2026-04-25 14:14 42.73470 -106.94993 41047 ft 566 kts 52°
2026-04-25 14:15 42.78118 -106.86298 41043 ft 567 kts 52°
2026-04-25 14:15 42.82764 -106.77579 41024 ft 566 kts 52°
2026-04-25 14:16 42.87360 -106.68931 41013 ft 566 kts 52°
2026-04-25 14:16 42.91984 -106.60203 40999 ft 567 kts 52°
2026-04-25 14:17 42.96573 -106.51516 40991 ft 566 kts 52°
2026-04-25 14:17 43.01174 -106.42782 40999 ft 566 kts 52°
2026-04-25 14:18 43.05754 -106.34063 41014 ft 566 kts 52°
2026-04-25 14:18 43.09899 -106.24882 41040 ft 568 kts 61°
2026-04-25 14:19 43.12784 -106.14790 41071 ft 571 kts 69°
2026-04-25 14:19 43.15714 -106.04757 41083 ft 569 kts 69°
2026-04-25 14:20 43.18608 -105.94652 41081 ft 569 kts 68°
2026-04-25 14:20 43.21482 -105.84521 41084 ft 569 kts 68°
2026-04-25 14:21 43.24335 -105.74458 41087 ft 568 kts 68°
2026-04-25 14:21 43.27202 -105.64337 41096 ft 569 kts 68°
2026-04-25 14:22 43.30062 -105.54189 41096 ft 568 kts 68°
2026-04-25 14:22 43.32900 -105.44070 41103 ft 568 kts 68°
2026-04-25 14:23 43.35716 -105.33989 41101 ft 568 kts 68°
2026-04-25 14:23 43.38539 -105.23848 41100 ft 567 kts 68°
2026-04-25 14:24 43.41349 -105.13706 41105 ft 567 kts 69°
2026-04-25 14:24 43.44134 -105.03617 41100 ft 567 kts 69°
2026-04-25 14:25 43.46932 -104.93436 41100 ft 567 kts 69°
2026-04-25 14:25 43.49704 -104.83310 41097 ft 567 kts 69°
2026-04-25 14:26 43.52470 -104.73162 41097 ft 567 kts 69°
2026-04-25 14:26 43.55244 -104.62946 41096 ft 568 kts 69°
2026-04-25 14:27 43.57999 -104.52752 41090 ft 567 kts 69°
2026-04-25 14:27 43.60739 -104.42575 41083 ft 568 kts 69°
2026-04-25 14:28 43.63486 -104.32324 41080 ft 568 kts 69°
2026-04-25 14:28 43.66219 -104.22086 41075 ft 568 kts 69°
2026-04-25 14:29 43.68933 -104.11876 41080 ft 569 kts 70°
2026-04-25 14:29 43.71655 -104.01590 41080 ft 569 kts 70°
2026-04-25 14:30 43.74360 -103.91324 41056 ft 568 kts 70°
2026-04-25 14:30 43.78399 -103.75915 41029 ft 568 kts 70°
2026-04-25 14:31 43.81086 -103.65605 41021 ft 569 kts 70°
2026-04-25 14:31 43.83759 -103.55308 41018 ft 568 kts 70°
2026-04-25 14:32 43.86431 -103.44968 41038 ft 568 kts 70°
2026-04-25 14:32 43.89086 -103.34650 41070 ft 568 kts 70°
2026-04-25 14:33 43.91719 -103.24370 41103 ft 567 kts 70°
2026-04-25 14:33 43.94357 -103.14027 41095 ft 568 kts 70°
2026-04-25 14:34 43.96980 -103.03739 41090 ft 567 kts 70°
2026-04-25 14:34 44.00144 -102.93712 41103 ft 567 kts 62°
2026-04-25 14:35 44.03489 -102.83736 41110 ft 567 kts 63°
2026-04-25 14:35 44.06822 -102.73851 41119 ft 566 kts 64°
2026-04-25 14:36 44.10172 -102.63889 41133 ft 567 kts 65°
2026-04-25 14:36 44.13475 -102.53984 41146 ft 566 kts 65°
2026-04-25 14:37 44.16792 -102.43987 41145 ft 567 kts 65°
2026-04-25 14:37 44.20083 -102.34044 41150 ft 566 kts 65°
2026-04-25 14:38 44.23386 -102.24031 41156 ft 567 kts 65°
2026-04-25 14:38 44.26663 -102.14056 41151 ft 567 kts 65°
2026-04-25 14:39 44.29951 -102.04009 41155 ft 567 kts 65°
2026-04-25 14:39 44.33230 -101.93951 41156 ft 568 kts 65°
2026-04-25 14:40 44.36478 -101.83952 41155 ft 567 kts 65°
2026-04-25 14:40 44.39734 -101.73889 41152 ft 568 kts 65°
2026-04-25 14:41 44.42971 -101.63846 41155 ft 568 kts 65°
2026-04-25 14:41 44.46222 -101.53722 41155 ft 568 kts 66°
2026-04-25 14:42 44.48369 -101.47012 41161 ft 569 kts 66°
2026-04-25 14:42 44.52661 -101.33552 41165 ft 569 kts 66°
2026-04-25 14:43 44.55891 -101.23375 41157 ft 570 kts 66°
2026-04-25 14:43 44.59110 -101.13193 41160 ft 569 kts 66°
2026-04-25 14:44 44.62299 -101.03067 41161 ft 569 kts 66°
2026-04-25 14:44 44.65496 -100.92873 41162 ft 570 kts 66°
2026-04-25 14:45 44.68671 -100.82714 41153 ft 569 kts 66°
2026-04-25 14:45 44.71312 -100.74230 41154 ft 570 kts 66°
2026-04-25 14:46 44.74496 -100.63965 41148 ft 569 kts 66°
2026-04-25 14:46 44.77635 -100.53805 41146 ft 569 kts 66°
2026-04-25 14:47 44.80251 -100.45307 41142 ft 569 kts 66°
2026-04-25 14:47 44.83909 -100.33375 41138 ft 568 kts 66°
2026-04-25 14:48 44.87047 -100.23096 41136 ft 569 kts 66°
2026-04-25 14:48 44.90152 -100.12888 41134 ft 568 kts 66°
2026-04-25 14:49 44.93265 -100.02607 41138 ft 568 kts 67°
2026-04-25 14:49 44.96368 -99.92319 41131 ft 569 kts 67°
2026-04-25 14:50 44.99462 -99.82021 41135 ft 568 kts 67°
2026-04-25 14:50 45.02527 -99.71775 41134 ft 569 kts 67°
2026-04-25 14:51 45.05605 -99.61443 41129 ft 567 kts 67°
2026-04-25 14:51 45.08645 -99.51199 41128 ft 568 kts 67°
2026-04-25 14:52 45.11700 -99.40863 41127 ft 567 kts 67°
2026-04-25 14:52 45.14230 -99.32269 41124 ft 567 kts 67°
2026-04-25 14:53 45.17754 -99.20250 41123 ft 567 kts 68°
2026-04-25 14:53 45.20760 -99.09951 41119 ft 566 kts 68°
2026-04-25 14:54 45.23764 -98.99617 41123 ft 567 kts 68°
2026-04-25 14:54 45.26771 -98.89229 41121 ft 566 kts 68°
2026-04-25 14:55 45.29757 -98.78870 41122 ft 566 kts 68°
2026-04-25 14:55 45.32714 -98.68567 41117 ft 566 kts 68°
2026-04-25 14:56 45.35688 -98.58165 41117 ft 565 kts 68°
2026-04-25 14:56 45.38623 -98.47853 41119 ft 566 kts 68°
2026-04-25 14:57 45.41628 -98.37485 41112 ft 564 kts 69°
2026-04-25 14:57 45.44283 -98.26939 41123 ft 565 kts 69°
2026-04-25 14:58 45.46957 -98.16461 41119 ft 564 kts 70°
2026-04-25 14:58 45.49649 -98.05950 41121 ft 564 kts 70°
2026-04-25 14:59 45.52330 -97.95402 41122 ft 564 kts 70°
2026-04-25 14:59 45.54987 -97.84866 41124 ft 564 kts 70°
2026-04-25 15:00 45.57625 -97.74361 41124 ft 564 kts 70°
2026-04-25 15:00 45.60270 -97.63797 41122 ft 563 kts 71°
2026-04-25 15:01 45.62883 -97.53302 41123 ft 564 kts 71°
2026-04-25 15:01 45.65508 -97.42711 41124 ft 563 kts 71°
2026-04-25 15:02 45.68119 -97.32128 41128 ft 563 kts 71°
2026-04-25 15:02 45.70706 -97.21597 41129 ft 563 kts 71°
2026-04-25 15:03 45.73294 -97.11009 41123 ft 562 kts 71°
2026-04-25 15:03 45.75853 -97.00491 41125 ft 562 kts 71°
2026-04-25 15:04 45.78413 -96.89919 41126 ft 561 kts 71°
2026-04-25 15:04 45.80962 -96.79339 41130 ft 561 kts 71°
2026-04-25 15:05 45.83506 -96.68736 41142 ft 562 kts 71°
2026-04-25 15:06 45.87282 -96.52896 41137 ft 561 kts 71°
2026-04-25 15:06 45.89802 -96.42264 41127 ft 561 kts 72°
2026-04-25 15:07 45.92311 -96.31627 41130 ft 561 kts 72°
2026-04-25 15:07 45.94792 -96.21060 41128 ft 562 kts 72°
2026-04-25 15:08 45.97286 -96.10380 41123 ft 561 kts 72°
2026-04-25 15:08 45.99763 -95.99725 41124 ft 561 kts 72°
2026-04-25 15:09 46.02238 -95.89023 41119 ft 562 kts 72°
2026-04-25 15:09 46.05914 -95.73037 41121 ft 561 kts 72°
2026-04-25 15:10 46.08339 -95.62420 41118 ft 562 kts 72°
2026-04-25 15:11 46.11827 -95.47062 41114 ft 553 kts 72°
2026-04-25 15:11 46.12988 -95.41922 41053 ft 528 kts 72°
2026-04-25 15:11 46.14109 -95.36956 41007 ft 518 kts 72°
2026-04-25 15:12 46.16290 -95.26678 40949 ft 563 kts 77°
2026-04-25 15:12 46.17117 -95.21089 40658 ft 576 kts 80°
2026-04-25 15:12 46.17946 -95.15439 40477 ft 573 kts 77°
2026-04-25 15:12 46.18272 -95.13556 40521 ft 574 kts 76°
2026-04-25 15:13 46.20094 -95.04341 40828 ft 572 kts 74°
2026-04-25 15:13 46.22162 -94.93454 41074 ft 536 kts 76°
2026-04-25 15:13 46.23090 -94.88609 40976 ft 482 kts 75°
2026-04-25 15:14 46.23959 -94.84088 40931 ft 446 kts 76°
2026-04-25 15:14 46.25560 -94.75628 40922 ft 439 kts 76°
2026-04-25 15:15 46.27147 -94.67214 40925 ft 442 kts 76°
2026-04-25 15:15 46.28730 -94.58832 40931 ft 432 kts 76°
2026-04-25 15:16 46.30314 -94.50450 40932 ft 436 kts 76°
2026-04-25 15:16 46.32684 -94.37864 40928 ft 432 kts 76°
2026-04-25 15:17 46.35038 -94.25344 40915 ft 423 kts 76°
2026-04-25 15:17 46.35804 -94.21541 40919 ft 405 kts 71°
2026-04-25 15:18 46.36880 -94.17921 41026 ft 379 kts 62°
2026-04-25 15:18 46.39770 -94.12170 41105 ft 339 kts 43°
2026-04-25 15:18 46.41487 -94.09953 41115 ft 329 kts 35°
2026-04-25 15:19 46.43044 -94.07617 40453 ft 329 kts 71°
2026-04-25 15:19 46.43317 -94.06529 39884 ft 348 kts 74°
2026-04-25 15:19 46.44552 -94.00344 38526 ft 409 kts 75°
2026-04-25 15:19 46.45376 -93.96187 38276 ft 446 kts 75°
2026-04-25 15:20 46.46270 -93.91693 38148 ft 493 kts 75°
2026-04-25 15:20 46.47272 -93.86681 38128 ft 531 kts 75°
2026-04-25 15:20 46.48313 -93.81510 38432 ft 528 kts 74°
2026-04-25 15:20 46.49365 -93.76338 39179 ft 540 kts 74°
2026-04-25 15:21 46.50444 -93.71073 39864 ft 545 kts 74°
2026-04-25 15:21 46.51531 -93.65817 40517 ft 554 kts 74°
2026-04-25 15:21 46.52655 -93.60412 40877 ft 560 kts 74°
2026-04-25 15:21 46.53787 -93.55013 41016 ft 560 kts 73°
2026-04-25 15:22 46.56079 -93.44209 41096 ft 558 kts 73°
2026-04-25 15:22 46.58404 -93.33421 41100 ft 558 kts 73°
2026-04-25 15:23 46.60749 -93.22700 41098 ft 558 kts 73°
2026-04-25 15:23 46.63142 -93.11924 41094 ft 558 kts 72°
2026-04-25 15:24 46.65555 -93.01215 41092 ft 558 kts 72°
2026-04-25 15:24 46.67195 -92.94022 41085 ft 558 kts 72°
2026-04-25 15:25 46.70488 -92.79791 41085 ft 558 kts 72°
2026-04-25 15:25 46.73011 -92.69061 41089 ft 558 kts 71°
2026-04-25 15:26 46.75547 -92.58422 41093 ft 558 kts 71°
2026-04-25 15:26 46.78129 -92.47736 41095 ft 557 kts 71°
2026-04-25 15:27 46.80724 -92.37138 41086 ft 557 kts 71°
2026-04-25 15:28 46.84250 -92.22962 41082 ft 557 kts 70°
2026-04-25 15:28 46.86928 -92.12357 41084 ft 556 kts 70°
2026-04-25 15:29 46.89644 -92.01745 41085 ft 556 kts 70°
2026-04-25 15:29 46.91286 -91.96712 41122 ft 554 kts 55°
2026-04-25 15:29 46.93764 -91.92389 41169 ft 556 kts 44°
2026-04-25 15:30 46.98388 -91.85785 41123 ft 557 kts 44°
2026-04-25 15:30 47.04526 -91.76059 41112 ft 555 kts 53°
2026-04-25 15:31 47.09285 -91.67160 41110 ft 555 kts 51°
2026-04-25 15:31 47.14055 -91.58266 41115 ft 554 kts 51°
2026-04-25 15:32 47.18848 -91.49353 41117 ft 555 kts 51°
2026-04-25 15:32 47.23615 -91.40493 41131 ft 554 kts 52°
2026-04-25 15:33 47.30769 -91.27089 41147 ft 553 kts 50°
2026-04-25 15:33 47.35612 -91.18335 41140 ft 553 kts 53°
2026-04-25 15:34 47.40332 -91.09334 41139 ft 553 kts 52°
2026-04-25 15:34 47.44241 -91.01850 41136 ft 552 kts 52°
2026-04-25 15:35 47.52062 -90.86898 41136 ft 552 kts 52°
2026-04-25 15:36 47.59088 -90.73518 41128 ft 550 kts 52°
2026-04-25 15:36 47.63787 -90.64523 41120 ft 550 kts 52°
2026-04-25 15:37 47.68446 -90.55578 41105 ft 549 kts 52°
2026-04-25 15:37 47.73119 -90.46572 41105 ft 549 kts 52°
2026-04-25 15:38 47.77758 -90.37600 41099 ft 549 kts 52°
2026-04-25 15:38 47.82392 -90.28608 41094 ft 548 kts 53°
2026-04-25 15:39 47.87032 -90.19577 41101 ft 549 kts 53°
2026-04-25 15:39 47.91669 -90.10521 41107 ft 548 kts 53°
2026-04-25 15:40 47.95516 -90.03075 41112 ft 547 kts 47°
2026-04-25 15:40 48.02336 -89.94479 41151 ft 549 kts 31°
2026-04-25 15:41 48.08889 -89.88766 41137 ft 549 kts 33°
2026-04-25 15:41 48.15394 -89.82708 41130 ft 549 kts 31°
2026-04-25 15:42 48.21844 -89.76683 41117 ft 549 kts 31°
2026-04-25 15:42 48.28359 -89.70621 41115 ft 550 kts 32°
2026-04-25 15:43 48.34872 -89.64554 41119 ft 550 kts 32°
2026-04-25 15:43 48.41385 -89.58457 41118 ft 551 kts 32°
2026-04-25 15:44 48.47860 -89.52374 41118 ft 551 kts 32°
2026-04-25 15:44 48.54388 -89.46225 41111 ft 551 kts 32°
2026-04-25 15:45 48.60866 -89.40106 41114 ft 552 kts 32°
2026-04-25 15:45 48.66301 -89.34956 41110 ft 552 kts 32°
2026-04-25 15:46 48.73901 -89.27733 40550 ft 557 kts 32°
2026-04-25 15:46 48.77149 -89.24638 39861 ft 546 kts 32°
2026-04-25 15:46 48.80340 -89.21593 39195 ft 536 kts 32°
2026-04-25 15:47 48.83480 -89.18591 38484 ft 531 kts 32°
2026-04-25 15:47 48.86595 -89.15607 37668 ft 523 kts 32°
2026-04-25 15:47 48.89641 -89.12688 36880 ft 511 kts 31°
2026-04-25 15:47 48.92588 -89.09860 36150 ft 504 kts 31°
2026-04-25 15:48 48.95568 -89.06994 35417 ft 497 kts 31°
2026-04-25 15:48 48.98469 -89.04201 34711 ft 487 kts 31°
2026-04-25 15:48 49.01269 -89.01502 34022 ft 480 kts 30°
2026-04-25 15:48 49.04097 -88.98769 33191 ft 478 kts 30°
2026-04-25 15:49 49.06904 -88.96056 32394 ft 479 kts 29°
2026-04-25 15:49 49.09720 -88.93332 31620 ft 477 kts 28°
2026-04-25 15:49 49.12503 -88.90633 30868 ft 472 kts 28°
2026-04-25 15:49 49.15277 -88.87940 30129 ft 470 kts 27°
2026-04-25 15:50 49.18031 -88.85267 29265 ft 462 kts 27°
2026-04-25 15:50 49.20672 -88.82694 28547 ft 450 kts 27°
2026-04-25 15:50 49.23321 -88.80118 28258 ft 449 kts 27°
2026-04-25 15:50 49.25963 -88.77542 28166 ft 449 kts 27°
2026-04-25 15:51 49.30338 -88.73263 28132 ft 447 kts 28°
2026-04-25 15:51 49.36458 -88.67267 28124 ft 447 kts 28°
2026-04-25 15:52 49.41678 -88.62138 28128 ft 446 kts 28°
2026-04-25 15:52 49.46902 -88.56990 28119 ft 445 kts 28°
2026-04-25 15:53 49.52402 -88.51583 28145 ft 542 kts 30°
2026-04-25 15:53 49.58752 -88.45263 28130 ft 546 kts 30°
2026-04-25 15:54 49.65216 -88.38843 28146 ft 575 kts 30°
2026-04-25 15:54 49.71954 -88.32126 28142 ft 577 kts 31°
2026-04-25 15:55 49.78689 -88.25390 28138 ft 576 kts 31°
2026-04-25 15:55 49.85414 -88.18639 28123 ft 576 kts 31°
2026-04-25 15:56 49.92134 -88.11873 28130 ft 577 kts 31°
2026-04-25 15:56 49.98867 -88.05068 28117 ft 575 kts 32°
2026-04-25 15:57 50.05537 -87.98305 28125 ft 576 kts 32°
2026-04-25 15:57 50.12253 -87.91472 28123 ft 576 kts 32°
2026-04-25 15:58 50.15636 -87.88022 28129 ft 589 kts 32°
2026-04-25 15:58 50.19076 -87.84507 28124 ft 588 kts 32°
2026-04-25 15:58 50.25927 -87.77490 28120 ft 588 kts 33°
2026-04-25 15:59 50.32726 -87.70500 28116 ft 587 kts 33°
2026-04-25 15:59 50.39568 -87.63442 28116 ft 586 kts 34°
2026-04-25 16:00 50.44078 -87.58776 28122 ft 585 kts 34°
2026-04-25 16:00 50.53141 -87.49367 28116 ft 583 kts 36°
2026-04-25 16:01 50.59908 -87.42311 28119 ft 583 kts 36°
2026-04-25 16:01 50.66650 -87.35258 28110 ft 584 kts 36°
2026-04-25 16:02 50.73428 -87.28140 28122 ft 584 kts 37°
2026-04-25 16:02 50.80166 -87.21041 28111 ft 584 kts 37°
2026-04-25 16:03 50.86946 -87.13874 28119 ft 584 kts 37°
2026-04-25 16:03 50.93692 -87.06717 28124 ft 583 kts 38°
2026-04-25 16:04 50.99916 -86.98779 28145 ft 570 kts 56°
2026-04-25 16:04 51.02128 -86.93578 28146 ft 563 kts 67°
2026-04-25 16:04 51.03768 -86.87929 28141 ft 559 kts 72°
2026-04-25 16:05 51.06877 -86.76660 28127 ft 561 kts 68°
2026-04-25 16:06 51.11821 -86.59833 28124 ft 558 kts 69°
2026-04-25 16:06 51.15056 -86.48659 28128 ft 557 kts 69°
2026-04-25 16:07 51.18296 -86.37458 28120 ft 556 kts 70°
2026-04-25 16:07 51.21542 -86.26204 28126 ft 555 kts 70°
2026-04-25 16:08 51.24746 -86.15029 28117 ft 556 kts 70°
2026-04-25 16:08 51.27955 -86.03781 28125 ft 556 kts 70°
2026-04-25 16:09 51.31136 -85.92580 28114 ft 556 kts 70°
2026-04-25 16:09 51.34334 -85.81270 28122 ft 556 kts 70°
2026-04-25 16:10 51.37496 -85.70031 28121 ft 557 kts 70°
2026-04-25 16:10 51.40673 -85.58685 28135 ft 556 kts 70°
2026-04-25 16:11 51.43815 -85.47404 28128 ft 557 kts 70°
2026-04-25 16:11 51.46955 -85.36082 28131 ft 557 kts 70°
2026-04-25 16:12 51.50098 -85.24690 28121 ft 558 kts 70°
2026-04-25 16:12 51.52705 -85.15200 28127 ft 558 kts 70°
2026-04-25 16:13 51.55821 -85.03805 28125 ft 559 kts 70°
2026-04-25 16:13 51.58947 -84.92319 28140 ft 560 kts 70°
2026-04-25 16:14 51.62069 -84.80788 28131 ft 561 kts 69°
2026-04-25 16:14 51.65179 -84.69243 28138 ft 562 kts 69°
2026-04-25 16:15 51.68275 -84.57694 28129 ft 563 kts 69°
2026-04-25 16:15 51.71366 -84.46106 28131 ft 563 kts 69°
2026-04-25 16:16 51.74438 -84.34530 28128 ft 563 kts 69°
2026-04-25 16:16 51.77515 -84.22875 28135 ft 563 kts 69°
2026-04-25 16:17 51.80561 -84.11280 28131 ft 563 kts 69°
2026-04-25 16:17 51.83623 -83.99564 28147 ft 563 kts 69°
2026-04-25 16:18 51.86640 -83.87959 28142 ft 563 kts 69°
2026-04-25 16:18 51.89670 -83.76248 28153 ft 562 kts 69°
2026-04-25 16:19 51.92682 -83.64539 28141 ft 562 kts 69°
2026-04-25 16:19 51.95663 -83.52897 28143 ft 561 kts 69°
2026-04-25 16:20 52.00132 -83.35326 28157 ft 560 kts 69°
2026-04-25 16:21 52.04557 -83.17785 28147 ft 558 kts 68°
2026-04-25 16:21 52.07475 -83.06150 28153 ft 557 kts 68°
2026-04-25 16:22 52.10391 -82.94456 28142 ft 556 kts 68°
2026-04-25 16:22 52.13289 -82.82775 28156 ft 556 kts 68°
2026-04-25 16:23 52.16158 -82.71148 28151 ft 555 kts 68°
2026-04-25 16:23 52.19030 -82.59449 28157 ft 555 kts 68°
2026-04-25 16:24 52.21889 -82.47734 28156 ft 555 kts 68°
2026-04-25 16:24 52.24720 -82.36082 28161 ft 555 kts 68°
2026-04-25 16:25 52.27557 -82.24337 28169 ft 555 kts 68°
2026-04-25 16:25 52.30384 -82.12567 28169 ft 555 kts 68°
2026-04-25 16:26 52.33184 -82.00850 28164 ft 555 kts 68°
2026-04-25 16:26 52.35985 -81.89066 28168 ft 555 kts 68°
2026-04-25 16:27 52.38768 -81.77293 28183 ft 554 kts 67°
2026-04-25 16:27 52.41524 -81.65569 28204 ft 553 kts 67°
2026-04-25 16:28 52.44279 -81.53783 28203 ft 552 kts 67°
2026-04-25 16:28 52.47017 -81.42011 28207 ft 551 kts 67°
2026-04-25 16:29 52.49737 -81.30247 28212 ft 550 kts 67°
2026-04-25 16:29 52.52422 -81.18570 28220 ft 549 kts 68°
2026-04-25 16:30 52.55103 -81.06845 28204 ft 547 kts 67°
2026-04-25 16:30 52.57774 -80.95103 28217 ft 546 kts 67°
2026-04-25 16:31 52.60410 -80.83450 28214 ft 545 kts 68°
2026-04-25 16:31 52.63039 -80.71762 28220 ft 543 kts 68°
2026-04-25 16:32 52.65643 -80.60116 28219 ft 541 kts 68°
2026-04-25 16:32 52.68238 -80.48454 28236 ft 540 kts 68°
2026-04-25 16:33 52.70790 -80.36910 28244 ft 538 kts 68°
2026-04-25 16:33 52.73345 -80.25300 28238 ft 537 kts 68°
2026-04-25 16:34 52.75879 -80.13711 28232 ft 536 kts 68°
2026-04-25 16:34 52.78400 -80.02121 28231 ft 534 kts 68°
2026-04-25 16:35 52.80881 -79.90647 28235 ft 534 kts 68°
2026-04-25 16:35 52.82138 -79.84917 28351 ft 520 kts 71°
2026-04-25 16:35 52.83342 -79.79290 28280 ft 521 kts 73°
2026-04-25 16:36 52.85749 -79.67992 28257 ft 519 kts 72°
2026-04-25 16:36 52.88133 -79.56727 28260 ft 518 kts 72°
2026-04-25 16:37 52.90514 -79.45467 28261 ft 516 kts 72°
2026-04-25 16:37 52.92871 -79.34275 28260 ft 515 kts 72°
2026-04-25 16:38 52.95221 -79.23039 28253 ft 515 kts 72°
2026-04-25 16:38 52.97557 -79.11807 28248 ft 514 kts 73°
2026-04-25 16:39 52.99946 -79.00616 28256 ft 514 kts 71°
2026-04-25 16:39 53.03015 -78.89910 28268 ft 517 kts 65°
2026-04-25 16:40 53.06142 -78.79159 28277 ft 516 kts 66°
2026-04-25 16:40 53.09295 -78.68439 28282 ft 515 kts 66°
2026-04-25 16:41 53.12417 -78.57792 28287 ft 515 kts 66°
2026-04-25 16:41 53.17091 -78.41692 28297 ft 514 kts 66°
2026-04-25 16:42 53.18662 -78.36260 28240 ft 532 kts 64°
2026-04-25 16:42 53.20295 -78.30696 28269 ft 533 kts 65°
2026-04-25 16:42 53.23503 -78.19441 28292 ft 537 kts 64°
2026-04-25 16:43 53.26707 -78.08217 28299 ft 539 kts 65°
2026-04-25 16:43 53.29940 -77.96878 28305 ft 540 kts 65°
2026-04-25 16:44 53.33154 -77.85537 28290 ft 540 kts 65°
2026-04-25 16:44 53.36340 -77.74233 28285 ft 539 kts 65°
2026-04-25 16:45 53.39533 -77.62856 28281 ft 539 kts 65°
2026-04-25 16:45 53.42714 -77.51467 28284 ft 539 kts 65°
2026-04-25 16:46 53.45885 -77.40053 28291 ft 539 kts 65°
2026-04-25 16:46 53.47978 -77.32491 28305 ft 538 kts 65°
2026-04-25 16:47 53.52168 -77.17274 28303 ft 539 kts 65°
2026-04-25 16:47 53.55299 -77.05840 28314 ft 538 kts 65°
2026-04-25 16:48 53.58416 -76.94400 28311 ft 538 kts 65°
2026-04-25 16:48 53.61503 -76.83010 28309 ft 538 kts 65°
2026-04-25 16:49 53.64598 -76.71535 28324 ft 538 kts 65°
2026-04-25 16:49 53.67680 -76.60053 28320 ft 537 kts 65°
2026-04-25 16:50 53.70751 -76.48553 28322 ft 537 kts 65°
2026-04-25 16:50 53.73808 -76.37045 28330 ft 536 kts 65°
2026-04-25 16:51 53.76836 -76.25590 28328 ft 537 kts 65°
2026-04-25 16:51 53.78866 -76.17880 28333 ft 536 kts 65°
2026-04-25 16:52 53.82893 -76.02504 28335 ft 536 kts 65°
2026-04-25 16:52 53.85900 -75.90951 28338 ft 536 kts 65°
2026-04-25 16:53 53.90398 -75.73565 28348 ft 535 kts 65°
2026-04-25 16:54 53.92871 -75.63943 28348 ft 535 kts 65°
2026-04-25 16:54 53.95836 -75.52360 28358 ft 534 kts 65°
2026-04-25 16:55 53.98289 -75.42726 28353 ft 534 kts 65°
2026-04-25 16:55 54.01726 -75.29161 28358 ft 533 kts 65°
2026-04-25 16:56 54.04647 -75.17566 28349 ft 533 kts 65°
2026-04-25 16:56 54.07563 -75.05932 28354 ft 533 kts 65°
2026-04-25 16:57 54.10455 -74.94328 28359 ft 533 kts 65°
2026-04-25 16:57 54.13325 -74.82757 28363 ft 532 kts 65°
2026-04-25 16:58 54.16192 -74.71135 28359 ft 531 kts 65°
2026-04-25 16:58 54.19047 -74.59501 28359 ft 531 kts 65°
2026-04-25 16:59 54.21891 -74.47848 28358 ft 530 kts 65°
2026-04-25 16:59 54.24709 -74.36243 28356 ft 530 kts 65°
2026-04-25 17:00 54.27524 -74.24588 28361 ft 530 kts 65°
2026-04-25 17:00 54.30331 -74.12901 28360 ft 530 kts 65°
2026-04-25 17:01 54.33122 -74.01218 28367 ft 530 kts 65°
2026-04-25 17:01 54.35904 -73.89509 28366 ft 529 kts 65°
2026-04-25 17:02 54.38668 -73.77817 28364 ft 526 kts 64°
2026-04-25 17:02 54.41375 -73.66305 28376 ft 527 kts 66°
2026-04-25 17:03 54.44116 -73.54602 28384 ft 527 kts 65°
2026-04-25 17:03 54.46829 -73.42898 28386 ft 526 kts 65°
2026-04-25 17:04 54.49526 -73.31231 28384 ft 526 kts 65°
2026-04-25 17:04 54.50622 -73.25367 27987 ft 502 kts 103°
2026-04-25 17:04 54.48049 -73.23066 18711 ft 542 kts 199°
2026-04-25 17:04 54.44043 -73.28274 10649 ft 837 kts 221°
2026-04-25 17:05 54.16352 -73.65833 9330 ft 822 kts 173°
2026-04-25 17:05 53.81661 -73.50881 2503 ft 721 kts 163°
2026-04-25 17:05 53.78402 -73.52582 4871 ft 452 kts 242°
2026-04-25 17:06 53.77432 -73.57148 3503 ft 359 kts 252°
2026-04-25 17:06 53.76853 -73.60370 2408 ft 229 kts 250°
2026-04-25 17:06 53.76423 -73.62488 1654 ft 171 kts 253°
2026-04-25 17:06 53.76076 -73.64345 1347 ft 168 kts 254°
2026-04-25 17:07 53.75719 -73.66252 1076 ft 163 kts 253°
2026-04-25 17:07 53.75444 -73.67721 1014 ft 93 kts 250°
2026-04-25 17:07 53.75361 -73.68106 1013 ft 0 kts 253°